Location: Unspecified
(0.0000°N, 0.0000°E)
Time: 11:25:36
(UTC+00:00)

A-11 Canister half - Pass Details

Date: 03 August 2021
Orbit: 1515 x 1685 km, 47.2° (Epoch: 27 September)

Event Time Altitude Azimuth Distance (km) Brightness Sun altitude
Rises 03:00:55 0° 292° (WNW) 4,906 - -43.6°
Reaches altitude 10° 03:04:55 10° 279° (W) 3,901 - -42.7°
Maximum altitude 03:12:30 25° 229° (SW) 2,867 - -41.0°
Drops below altitude 10° 03:19:58 10° 177° (S) 3,807 - -39.3°
Exits shadow 03:22:33 - 168° (SSE) 4,425 11.3 -38.7°
Sets 03:23:52 0° 164° (SSE) 4,764 11.5 -38.4°
